"Time","Temp","Dewpoint","Humidity","Pressure","Direction","Speed","Gust","Precip","PrecipRate"
"00:04:57","38.1","36.1","92.5","30.36","316","0","0","0.00","0.00"
"00:09:57","38","36.1","92.7","30.36","316","0","0","0.00","0.00"
"00:14:57","38","36.2","93","30.36","316","0","0","0.00","0.00"
"00:19:55","37.9","36","92.7","30.36","316","0","0","0.00","0.00"
"00:24:58","37.7","35.6","92","30.36","316","0","0","0.00","0.00"
"00:29:57","37.5","35.7","92.8","30.36","316","0","0","0.00","0.00"
"00:34:57","37.4","35.6","93","30.35","316","0","0","0.00","0.00"
"00:39:58","37.3","35.5","93","30.35","316","0","0","0.00","0.00"
"00:44:57","37.2","35.4","93","30.35","316","0","0","0.00","0.00"
"00:49:59","37","35.2","93","30.34","316","0","0","0.00","0.00"
"00:54:58","36.9","35.1","93","30.34","316","0","0","0.00","0.00"
"00:59:57","36.8","35","93","30.34","316","0","0","0.00","0.00"
"01:04:56","36.7","34.9","93","30.34","316","0","0","0.00","0.00"
"01:09:59","36.7","34.9","93.5","30.34","316","0","0","0.00","0.00"
"01:14:56","36.6","34.9","93.5","30.34","316","0","0","0.00","0.00"
"01:19:59","36.5","34.7","93.2","30.34","316","0","0","0.00","0.00"
"01:24:57","36.4","34.6","93.2","30.34","316","0","0","0.00","0.00"
"01:29:56","36.4","34.8","94","30.34","316","0","0","0.00","0.00"
"01:34:59","36.5","34.9","94","30.33","316","0","0","0.00","0.00"
"01:39:56","36.5","34.9","94","30.33","316","0","0","0.00","0.00"
"01:44:59","36.5","34.9","94","30.33","316","0","0","0.00","0.00"
"01:49:58","36.4","34.8","94","30.33","316","0","0","0.00","0.00"
"01:54:56","36.4","34.8","94","30.33","316","0","0","0.00","0.00"
"01:59:59","36.1","34.5","94","30.33","316","0","0","0.00","0.00"
"02:04:57","36","34.4","94","30.32","316","0","0","0.00","0.00"
"02:09:57","35.9","34.3","94","30.32","316","0","0","0.00","0.00"
"02:14:58","35.9","34.3","94","30.33","316","0","0","0.00","0.00"
"02:19:57","35.8","34.2","94","30.33","316","0","0","0.00","0.00"
"02:24:56","35.8","34.2","94","30.33","316","0","0","0.00","0.00"
"02:29:59","35.7","34.1","94","30.33","316","0","0","0.00","0.00"
"02:34:58","35.6","34","94","30.32","316","0","0","0.00","0.00"
"02:39:59","35.4","33.8","94","30.32","316","0","0","0.00","0.00"
"02:44:58","35.2","33.6","94","30.32","316","0","0","0.00","0.00"
"02:49:56","35","33.4","94","30.32","316","0","0","0.00","0.00"
"02:54:59","34.9","33.3","94","30.32","316","0","0","0.00","0.00"
"02:59:57","34.8","33.2","94","30.32","316","0","0","0.00","0.00"
"03:04:57","34.7","33.2","94","30.31","316","0","0","0.00","0.00"
"03:09:56","34.6","33.1","94","30.31","316","0","0","0.00","0.00"
"03:14:57","34.6","33.1","94","30.31","316","0","0","0.00","0.00"
"03:19:55","34.6","33.1","94","30.31","316","0","0","0.00","0.00"
"03:24:58","34.6","33.1","94","30.31","316","0","0","0.00","0.00"
"03:29:57","34.4","32.9","94","30.31","316","0","0","0.00","0.00"
"03:34:56","34.4","32.9","94","30.31","316","0","0","0.00","0.00"
"03:39:56","34.3","32.8","94.2","30.31","316","0","0","0.00","0.00"
"03:44:59","34.3","33","94.8","30.31","316","0","0","0.00","0.00"
"03:49:58","34.2","32.8","94.5","30.31","316","0","0","0.00","0.00"
"03:54:57","34.1","32.8","94.6","30.31","316","0","0","0.00","0.00"
"03:59:56","34.1","32.8","95","30.31","316","0","0","0.00","0.00"
"04:04:59","34.2","32.9","95","30.31","316","0","0","0.00","0.00"
"04:09:59","34.3","33","95","30.31","316","0","0","0.00","0.00"
"04:14:58","34.4","33.1","95","30.31","316","0","0","0.00","0.00"
"04:19:57","34.3","33","95","30.31","316","0","0","0.00","0.00"
"04:24:56","34.2","32.9","95","30.31","316","0","0","0.00","0.00"
"04:29:59","34.1","32.8","95","30.31","316","0","0","0.00","0.00"
"04:34:58","34.1","32.8","95","30.31","316","0","0","0.00","0.00"
"04:39:58","34.1","32.8","95","30.31","316","0","0","0.00","0.00"
"04:44:57","34.1","32.8","95","30.31","316","0","0","0.00","0.00"
"04:49:56","34","32.7","95","30.31","316","0","0","0.00","0.00"
"04:54:58","34","32.7","95","30.31","316","0","0","0.00","0.00"
"04:59:58","33.9","32.6","95","30.31","316","0","0","0.00","0.00"
"05:04:57","33.7","32.4","95","30.31","316","0","0","0.00","0.00"
"05:09:56","33.6","32.3","95","30.31","316","0","0","0.00","0.00"
"05:14:57","33.6","32.3","95","30.31","316","0","0","0.00","0.00"
"05:19:56","33.4","32.1","95","30.31","316","0","0","0.00","0.00"
"05:24:59","33.5","32.2","95","30.31","316","0","0","0.00","0.00"
"05:29:57","33.5","32.2","95","30.31","316","0","0","0.00","0.00"
"05:34:56","33.4","32.1","95","30.31","316","0","0","0.00","0.00"
"05:39:56","33.4","32.1","95","30.31","316","0","0","0.00","0.00"
"05:44:59","33.3","32","95","30.31","316","0","0","0.00","0.00"
"05:49:58","33.2","31.9","95","30.31","316","0","0","0.00","0.00"
"05:54:56","33.2","31.9","95","30.31","316","0","0","0.00","0.00"
"05:59:59","33.1","31.8","95","30.31","316","0","0","0.00","0.00"
"06:04:57","33.1","31.9","95.3","30.31","316","0","0","0.00","0.00"
"06:09:58","33.2","32.2","96","30.31","316","0","0","0.00","0.00"
"06:14:59","33.2","31.9","95.2","30.31","316","0","0","0.00","0.00"
"06:19:58","33.1","31.8","95","30.31","316","0","0","0.00","0.00"
"06:24:57","33","31.7","95","30.31","316","0","0","0.00","0.00"
"06:29:56","32.8","31.5","95","30.31","316","0","0","0.00","0.00"
"06:34:59","32.7","31.4","95","30.31","316","0","0","0.00","0.00"
"06:39:57","32.5","31.2","95","30.31","316","0","0","0.00","0.00"
"06:44:59","32.5","31.2","95","30.31","316","0","0","0.00","0.00"
"06:49:59","32.5","31.2","95","30.31","316","0","0","0.00","0.00"
"06:54:58","32.5","31.2","95","30.31","316","0","0","0.00","0.00"
"06:59:57","32.5","31.2","95","30.31","316","0","0","0.00","0.00"
"07:04:56","32.4","31.1","95","30.31","316","0","0","0.00","0.00"
"07:09:59","32.4","31.2","95.5","30.31","316","0","0","0.00","0.00"
"07:14:56","32.4","31.2","95.5","30.31","316","0","0","0.00","0.00"
"07:19:59","32.3","31","95","30.31","316","0","0","0.00","0.00"
"07:24:59","32.2","30.9","95","30.31","316","0","0","0.00","0.00"
"07:29:57","32.1","30.8","95","30.31","316","0","0","0.00","0.00"
"07:34:57","32","30.7","95","30.31","316","0","0","0.00","0.00"
"07:39:58","32","30.8","95.4","30.31","316","0","0","0.00","0.00"
"07:44:58","32.1","31.1","96","30.31","316","0","1.2","0.00","0.00"
"07:49:57","32.1","31.1","96","30.31","316","0","0","0.00","0.00"
"07:54:56","32.1","30.9","95.4","30.31","316","0","0","0.00","0.00"
"07:59:56","32","30.7","95.1","30.32","316","0","0","0.00","0.00"
"08:04:58","32","31","96","30.32","316","0","0","0.00","0.00"
"08:09:57","32.1","31.1","96","30.32","316","0","0","0.00","0.00"
"08:14:58","32.2","31.2","96","30.32","316","0","0","0.00","0.00"
"08:19:57","32.2","31.2","96","30.32","316","0","0","0.00","0.00"
"08:24:56","32.3","31.3","96","30.32","316","0","0","0.00","0.00"
"08:29:59","32.5","31.5","96","30.33","316","0","0","0.00","0.00"
"08:34:57","32.7","31.7","96","30.33","316","0.2","2.4","0.00","0.00"
"08:39:57","33.3","32.4","96.6","30.33","316","1.3","3.6","0.00","0.00"
"08:44:56","34.1","33.3","97","30.33","316","1.6","3.6","0.00","0.00"
"08:49:58","35.1","34.3","97","30.33","316","1","3.6","0.00","0.00"
"08:54:57","36.1","35.3","97","30.33","318","2","4.8","0.00","0.00"
"08:59:59","37","36.3","97.4","30.33","318","1.9","3.6","0.00","0.00"
"09:04:57","37.6","36.8","97.2","30.33","317","2.2","4.8","0.00","0.00"
"09:09:57","38.3","37.5","97","30.33","321","1.1","3.5","0.00","0.00"
"09:14:58","38.8","37.9","96.6","30.33","316","2.8","4.8","0.00","0.00"
"09:19:56","39.4","38.4","95.8","30.33","311","2","4.8","0.00","0.00"
"09:24:59","40","38.6","94.5","30.33","311","1.9","4.6","0.00","0.00"
"09:29:58","40.7","38.9","93.3","30.33","311","2","3.6","0.00","0.00"
"09:34:56","41.3","39.2","92.2","30.32","312","1.5","3.6","0.00","0.00"
"09:39:57","42","39.7","91.6","30.32","312","0.7","3.6","0.00","0.00"
"09:44:59","42.8","40","89.8","30.32","312","1.2","3.6","0.00","0.00"
"09:49:57","43.5","40.7","89.4","30.32","312","0.5","3.6","0.00","0.00"
"09:54:59","44.4","41.1","88.3","30.32","312","1","2.4","0.00","0.00"
"09:59:58","45.2","41.8","87.6","30.32","312","0.2","2.4","0.00","0.00"
"10:04:56","46.3","42","85","30.31","312","0.1","3.6","0.00","0.00"
"10:09:59","47.3","42","82","30.31","312","0.3","3.5","0.00","0.00"
"10:14:56","48.1","41.6","78.4","30.32","312","1.1","3.6","0.00","0.00"
"10:19:56","48.6","41.3","75.9","30.32","312","1.5","3.6","0.00","0.00"
"10:24:59","49","41.1","74","30.32","313","1.8","3.6","0.00","0.00"
"10:29:58","49.4","41.7","74.7","30.32","306","1.1","3.6","0.00","0.00"
"10:34:57","49.9","41.5","72.7","30.31","306","1.5","3.6","0.00","0.00"
"10:39:58","50.6","42.4","73.6","30.31","306","0.5","2.4","0.00","0.00"
"10:44:57","51.7","43.4","73.2","30.31","306","0.6","2.4","0.00","0.00"
"10:49:59","52.8","43.6","70.9","30.31","306","1","2.4","0.00","0.00"
"10:54:58","53.6","44","69.8","30.31","306","1.2","2.4","0.00","0.00"
"10:59:57","54","44","69","30.31","306","0.5","3.6","0.00","0.00"
"11:04:59","54.3","44","68.2","30.31","306","1.1","3.5","0.00","0.00"
"11:09:58","54.8","44.3","67.6","30.31","304","2","3.6","0.00","0.00"
"11:14:59","55","44","66.5","30.31","306","0.6","2.4","0.00","0.00"
"11:19:57","55.4","44.8","67.5","30.30","306","0.6","3.6","0.00","0.00"
"11:24:56","56","44.6","65.7","30.30","306","1.6","4.8","0.00","0.00"
"11:29:58","56.3","44.8","65.2","30.30","299","1.2","3.6","0.00","0.00"
"11:34:57","56.6","45.1","65.3","30.29","164","0.9","3.6","0.00","0.00"
"11:39:57","57.1","45.5","65.1","30.29","157","1.2","3.6","0.00","0.00"
"11:44:56","57.6","45.4","63.6","30.29","151","1.5","4.8","0.00","0.00"
"11:49:58","57.9","45.8","64","30.28","174","1.9","6","0.00","0.00"
"11:54:56","57.9","45.8","64","30.28","192","2.9","6","0.00","0.00"
"11:59:59","57.7","46.1","65.1","30.28","184","3","6","0.00","0.00"
"12:04:58","57.7","46.3","65.7","30.27","195","2.9","6","0.00","0.00"
"12:09:57","58","46.8","66.2","30.27","116","2.2","4.8","0.00","0.00"
"12:14:57","58.3","46.6","65.2","30.27","144","2.8","6","0.00","0.00"
"12:19:56","58.4","46.9","65.3","30.26","129","2.9","8.4","0.00","0.00"
"12:24:59","58.4","46.6","64.8","30.26","116","3","8.4","0.00","0.00"
"12:29:58","58.5","47.2","66","30.26","84","2.3","8.1","0.00","0.00"
"12:34:56","58.8","47.3","65.6","30.25","110","3.1","7.2","0.00","0.00"
"12:39:58","59","47","64.3","30.25","120","1.6","6.9","0.00","0.00"
"12:44:57","59.3","47.3","64.6","30.25","120","2","3.6","0.00","0.00"
"12:49:59","59.6","47.5","64.1","30.24","157","3.2","7.2","0.00","0.00"
"12:54:57","59.9","47.9","64.5","30.24","99","3.7","6","0.00","0.00"
"12:59:56","59.9","48","64.8","30.24","106","2.7","6","0.00","0.00"
"13:04:58","59.9","48","64.8","30.23","86","2.9","4.8","0.00","0.00"
"13:09:57","60.1","48.6","65.6","30.23","45","2","4.8","0.00","0.00"
"13:14:59","60.6","48.1","63.6","30.23","111","2.5","6","0.00","0.00"
"13:19:57","60.8","48","62.9","30.22","162","2.3","8.4","0.00","0.00"
"13:24:55","61","48.3","63","30.22","130","3.4","7.2","0.00","0.00"
"13:29:58","61","48.2","62.7","30.22","179","2.6","6","0.00","0.00"
"13:34:56","61.2","48.6","63.2","30.21","185","2.2","6","0.00","0.00"
"13:39:57","61.5","48.3","62","30.21","201","3.9","7.2","0.00","0.00"
"13:44:56","61.7","48.7","62.4","30.21","183","2.8","6","0.00","0.00"
"13:49:59","62.1","48.5","61.1","30.20","199","3.9","7.2","0.00","0.00"
"13:54:57","61.9","48.3","60.9","30.20","212","4.3","7.2","0.00","0.00"
"13:59:55","61.7","48","61","30.20","191","3.8","6","0.00","0.00"
"14:04:58","61.6","48.2","61.3","30.20","195","3.8","8.4","0.00","0.00"
"14:09:57","61.7","48.2","61.2","30.20","188","4.1","8.4","0.00","0.00"
"14:14:58","62.2","48.7","61.3","30.20","196","2.7","6.9","0.00","0.00"
"14:19:57","62.9","49.1","60.8","30.19","198","2.8","8.4","0.00","0.00"
"14:24:58","63.3","48.5","58.5","30.19","218","4","8.1","0.00","0.00"
"14:29:57","63.3","48.5","58.5","30.19","181","2","5.8","0.00","0.00"
"14:34:59","63","48","57.9","30.18","198","2.7","6","0.00","0.00"
"14:39:59","62.6","47.3","57.5","30.18","198","1.9","3.6","0.00","0.00"
"14:44:58","62.5","48.4","59.8","30.18","197","1.5","4.8","0.00","0.00"
"14:49:56","62.9","48.5","59.2","30.17","183","3.1","7.2","0.00","0.00"
"14:54:58","63.2","48.2","58.1","30.17","188","2.3","6","0.00","0.00"
"14:59:57","63.5","48.6","58.4","30.17","190","2.4","6","0.00","0.00"
"15:04:59","63.6","48.5","57.8","30.17","160","1.2","3.6","0.00","0.00"
"15:09:58","63.9","48.7","57.8","30.17","168","2.1","6","0.00","0.00"
"15:14:58","63.8","48.1","56.6","30.17","182","2.6","5.8","0.00","0.00"
"15:19:56","63.9","48.4","57","30.17","150","1.5","7.2","0.00","0.00"
"15:24:58","63.9","47.9","55.9","30.17","111","2.9","7.2","0.00","0.00"
"15:29:56","63.4","47.8","56.9","30.17","105","0.5","2.4","0.00","0.00"
"15:34:58","63.3","48.3","57.9","30.17","148","2.2","4.8","0.00","0.00"
"15:39:58","63.7","48.6","57.9","30.17","183","2.2","4.8","0.00","0.00"
"15:44:57","64.3","48.3","56.2","30.17","170","2.4","6","0.00","0.00"
"15:49:56","64.2","47.2","54.2","30.16","148","2.1","4.8","0.00","0.00"
"15:54:58","63.9","47.8","55.8","30.16","147","2.4","4.8","0.00","0.00"
"15:59:56","63.4","47.1","55.5","30.16","157","1.8","6","0.00","0.00"
"16:04:58","62.8","47.1","56.6","30.16","205","3","6","0.00","0.00"
"16:09:57","62.1","47","57.7","30.16","205","2.4","4.8","0.00","0.00"
"16:14:58","61.6","46.7","58.1","30.16","205","2.9","4.8","0.00","0.00"
"16:19:57","61.2","46.6","58.7","30.16","203","2.5","4.8","0.00","0.00"
"16:24:59","60.9","46.3","58.7","30.16","202","1.9","4.8","0.00","0.00"
"16:29:57","60.6","46.3","59.2","30.16","202","1.6","3.6","0.00","0.00"
"16:34:56","60.4","46.3","59.7","30.15","202","0.8","2.4","0.00","0.00"
"16:39:57","60.2","46.1","59.6","30.15","202","0.7","2.4","0.00","0.00"
"16:44:59","60.2","46.2","59.9","30.15","202","0.7","2.4","0.00","0.00"
"16:49:58","60.1","46.4","60.5","30.15","202","0.6","2.4","0.00","0.00"
"16:54:56","60.1","46.2","59.8","30.15","202","0.3","2.4","0.00","0.00"
"16:59:59","60.2","46.6","60.6","30.15","202","0","2.3","0.00","0.00"
"17:04:57","60.3","46.3","59.8","30.14","202","0.9","2.4","0.00","0.00"
"17:09:56","60.3","46.4","60.1","30.14","202","0","1.2","0.00","0.00"
"17:14:57","60.4","46.9","61.1","30.15","202","0","0","0.00","0.00"
"17:19:57","60.3","46.8","60.9","30.15","202","0","0","0.00","0.00"
"17:24:56","60.3","46.6","60.5","30.15","202","0","0","0.00","0.00"
"17:29:59","60.2","46.5","60.5","30.15","202","0","0","0.00","0.00"
"17:34:58","60.1","46.6","61","30.14","202","0","0","0.00","0.00"
"17:39:59","59.9","46.7","61.8","30.14","202","0","0","0.00","0.00"
"17:44:58","59.7","47.1","62.9","30.14","202","0","0","0.00","0.00"
"17:49:57","59.5","47","63.4","30.14","202","0","0","0.00","0.00"
"17:54:56","59.2","47","64","30.14","202","0","0","0.00","0.00"
"17:59:59","59","46.8","64","30.14","202","0.2","1.2","0.00","0.00"
"18:04:58","58.6","46.9","65","30.14","202","0","0","0.00","0.00"
"18:09:57","58.3","46.7","65.3","30.14","202","0","0","0.00","0.00"
"18:14:56","58","46.8","66.2","30.14","202","0","0","0.00","0.00"
"18:19:59","57.9","46.7","66.4","30.14","202","0","0","0.00","0.00"
"18:24:59","57.8","46.9","67","30.14","202","0","0","0.00","0.00"
"18:29:58","57.5","46.8","67.5","30.14","202","0","0","0.00","0.00"
"18:34:57","57.3","47.1","68.8","30.13","202","0","0","0.00","0.00"
"18:39:59","57.1","47.1","69.3","30.13","202","0","0","0.00","0.00"
"18:44:58","56.6","46.9","70","30.14","202","0","0","0.00","0.00"
"18:49:57","56.1","46.8","70.9","30.14","202","0","0","0.00","0.00"
"18:54:56","55.8","46.7","71.4","30.14","202","0","0","0.00","0.00"
"18:59:59","55.5","46.6","72","30.15","202","0","0","0.00","0.00"
"19:04:58","55.2","46.6","72.9","30.15","202","0","0","0.00","0.00"
"19:09:57","54.9","46.6","73.5","30.15","202","0","0","0.00","0.00"
"19:14:58","54.6","46.5","74","30.15","202","0","0","0.00","0.00"
"19:19:58","54.4","46.6","74.7","30.15","202","0","0","0.00","0.00"
"19:24:57","54.2","46.8","76","30.15","202","0","0","0.00","0.00"
"19:29:56","54.1","46.9","76.8","30.15","202","0","0","0.00","0.00"
"19:34:59","54","47","77","30.15","202","0","0","0.00","0.00"
"19:39:56","53.8","46.9","77.1","30.15","202","0","0","0.00","0.00"
"19:44:59","53.6","46.9","78","30.16","202","0","0","0.00","0.00"
"19:49:58","53.4","46.7","78","30.16","202","0","0","0.00","0.00"
"19:54:56","53.3","46.8","78.6","30.16","202","0","0","0.00","0.00"
"19:59:59","53.1","46.9","79.3","30.16","202","0","0","0.00","0.00"
"20:04:57","53","46.8","79.6","30.16","202","0","0","0.00","0.00"
"20:09:57","52.8","46.8","80","30.16","202","0","0","0.00","0.00"
"20:14:58","52.6","46.6","80","30.16","202","0","0","0.00","0.00"
"20:19:57","52.4","46.6","80.5","30.16","202","0","0","0.00","0.00"
"20:24:57","52.2","46.5","80.8","30.16","202","0","0","0.00","0.00"
"20:29:59","52","46.5","81.3","30.16","202","0","0","0.00","0.00"
"20:34:59","51.9","46.6","82","30.16","202","0","0","0.00","0.00"
"20:39:56","51.7","46.4","82","30.16","202","0","0","0.00","0.00"
"20:44:56","51.5","46.2","82","30.16","202","0","0","0.00","0.00"
"20:49:58","51.4","46.4","83","30.15","202","0","0","0.00","0.00"
"20:54:57","51.2","46.2","83","30.15","202","0","0","0.00","0.00"
"20:59:59","50.9","45.9","83","30.15","202","0","0","0.00","0.00"
"21:04:58","50.7","45.9","83.6","30.15","202","0","0","0.00","0.00"
"21:09:57","50.6","45.9","84","30.15","202","0","0","0.00","0.00"
"21:14:59","50.4","45.7","84","30.15","202","0","0","0.00","0.00"
"21:19:57","50.1","45.5","84","30.14","202","0","0","0.00","0.00"
"21:24:57","49.9","45.3","84.2","30.14","202","0","0","0.00","0.00"
"21:29:56","49.6","45.3","85","30.15","202","0","0","0.00","0.00"
"21:34:58","49.4","45.4","85.8","30.15","202","0","0","0.00","0.00"
"21:39:59","49.3","45.3","86","30.15","202","0","0","0.00","0.00"
"21:44:58","49.1","45.1","86","30.15","202","0","0","0.00","0.00"
"21:49:56","48.9","44.9","86","30.14","202","0","0","0.00","0.00"
"21:54:59","48.7","44.8","86.4","30.14","202","0","0","0.00","0.00"
"21:59:57","48.5","44.8","87","30.14","202","0","0","0.00","0.00"
"22:04:56","48.3","44.8","87.7","30.14","202","0","0","0.00","0.00"
"22:09:59","48.1","44.5","87.5","30.14","202","0","0","0.00","0.00"
"22:14:56","47.9","44.5","88","30.15","202","0","0","0.00","0.00"
"22:19:59","47.7","44.3","88","30.15","202","0","0","0.00","0.00"
"22:24:57","47.5","44.1","88","30.15","202","0","0","0.00","0.00"
"22:29:56","47.3","44.2","88.8","30.15","202","0","0","0.00","0.00"
"22:34:59","47.2","44.1","89","30.15","202","0","0","0.00","0.00"
"22:39:56","47.1","44","89","30.15","202","0","0","0.00","0.00"
"22:44:58","47.1","44.2","90","30.15","202","0","0","0.00","0.00"
"22:49:57","47","44.2","90","30.14","202","0","0","0.00","0.00"
"22:54:56","46.8","43.8","89.3","30.14","202","0","0","0.00","0.00"
"22:59:58","46.6","43.7","89.9","30.14","202","0","0","0.00","0.00"
"23:04:57","46.5","43.7","90","30.14","202","0","0","0.00","0.00"
"23:09:56","46.4","43.9","90.8","30.14","202","0","0","0.00","0.00"
"23:14:57","46.5","44","91","30.14","202","0","0","0.00","0.00"
"23:19:56","46.5","44","91","30.14","202","0","0","0.00","0.00"
"23:24:59","46.5","44","91","30.14","202","0","0","0.00","0.00"
"23:29:57","46.4","43.9","91","30.14","202","0","0","0.00","0.00"
"23:34:56","46.2","43.5","90.3","30.13","202","0","0","0.00","0.00"
"23:39:56","46.1","43.4","90.5","30.13","202","0","0","0.00","0.00"
"23:44:59","45.9","43.4","91","30.13","202","0","0","0.00","0.00"
"23:49:57","45.8","43.3","91","30.13","202","0","0","0.00","0.00"
"23:54:59","45.6","43.1","91","30.13","202","0","0","0.00","0.00"
